User: anonymous   Login
Location: Unspecified
(0.0000°N, 0.0000°E)
Time: 14:30:20
(UTC+02:00)
Language:

Cosmos 1092 Rocket - Orbit

View from above orbital plane
View from above orbital plane
View from above satellite
View from above satellite

Ground track
Ground track

The orbit data is extracted from the following two-line orbital elements,

1 11327U 79030B   15216.75736834  .00000083  00000-0  68888-4 0  9994
2 11327 082.9484 082.5818 0026433 291.3766 136.7939 13.76960980825221
Epoch (UTC): 04 August 2015 18:10:36
Eccentricity: 0.0026433
inclination: 82.9484°
perigee height: 955 km
apogee height: 994 km
right ascension of ascending node: 82.5818°
argument of perigee: 291.3766°
revolutions per day: 13.76960980
mean anomaly at epoch: 136.7939°
orbit number at epoch: 82522

The dashed part of the orbit path shows where the satellite is in the earth's shadow,  

DLR